Yatton Keynell, United Kingdom

1:26 AM GMT on March 27, 2019 (GMT +0000)
Yatton Keynell

Weather History for 03740 - July, 2005

Change the Weather History Date:

Tuesday, July 19, 2005

  Actual Average Record
Temperature  
Mean Temperature 60 °F -  
Max Temperature 67 °F 68 °F - ()
Min Temperature 52 °F 53 °F - ()
Degree Days  
Heating Degree Days 6    
Growing Degree Days 10 (Base 50)    
Moisture  
Dew Point 49 °F    
Average Humidity 67    
Maximum Humidity 88    
Minimum Humidity 36    
Precipitation  
Precipitation 0.00 in 0.08 in - ()
Sea Level Pressure  
Sea Level Pressure 30.01 in    
Wind  
Wind Speed 11 mph ()    
Max Wind Speed 21 mph    
Max Gust Speed -    
Visibility 8.6 miles    
Events      
T = Trace of Precipitation, MM = Missing Value Source: Averaged Metar Reports

Daily Weather History Graph

Daily Weather History Graph

Search for Another Location

Airport or City:

Astronomy

Jul. 19, 2005 Rise Set
Actual Time 5:13 AM BST 9:14 PM BST
Civil Twilight 4:29 AM BST 9:57 PM BST
Nautical Twilight 3:27 AM BST 10:59 PM BST
Astronomical Twilight 1:46 AM BST 12:41 AM BST
Moon 8:25 PM BST (7/19) 1:58 AM BST (7/19)
Length of Visible Light 17h 28m
Length of Day
16h 01m
Waxing Gibbous, 94% of the Moon is Illuminated
Jul 19
Waxing Gibbous
Jul 21
Full
Jul 28
Last Quarter
Aug 5
New
Aug 13
First Quarter

Hourly Weather History & Observations

Time (BST) Temp. Dew Point Humidity Pressure Visibility Wind Dir Wind Speed Gust Speed Precip Events Conditions
12:50 AM 56 °F 52 °F 81% 29.89 in 19 mi WSW 9.2 mph - -   Scattered Clouds
12:50 AM 55.4 °F 51.8 °F 88% 29.89 in - WSW 9.2 mph - N/A   Clear
1:50 AM 55.4 °F 51.8 °F 88% 29.89 in - WSW 11.5 mph - N/A   Clear
2:50 AM 55.4 °F 50.0 °F 82% 29.89 in - WSW 10.4 mph - N/A   Clear
3:50 AM 54 °F 48 °F 72% 29.91 in 19 mi WSW 10.4 mph - -   Scattered Clouds
3:50 AM 53.6 °F 48.2 °F 82% 29.89 in - WSW 10.4 mph - N/A   Clear
4:50 AM 51.8 °F 48.2 °F 88% 29.92 in 6.2 mi WSW 10.4 mph - N/A   Partly Cloudy
5:50 AM 51.8 °F 48.2 °F 88% 29.95 in 6.2 mi WSW 9.2 mph - N/A   Partly Cloudy
6:50 AM 54 °F 49 °F 77% 29.98 in 19 mi SW 6.9 mph - -   Mostly Cloudy
6:50 AM 53.6 °F 48.2 °F 82% 29.95 in 6.2 mi SW 6.9 mph - N/A   Mostly Cloudy
7:50 AM 57.2 °F 50.0 °F 77% 29.98 in 6.2 mi WSW 10.4 mph - N/A   Scattered Clouds
8:50 AM 59.0 °F 48.2 °F 67% 30.01 in 6.2 mi WSW 12.7 mph - N/A   Mostly Cloudy
9:50 AM 61 °F 45 °F 45% 30.03 in 19 mi West 16.1 mph - -   Mostly Cloudy
9:50 AM 60.8 °F 44.6 °F 55% 30.01 in 6.2 mi West 16.1 mph - N/A   Scattered Clouds
10:50 AM 62.6 °F 44.6 °F 52% 30.04 in 6.2 mi West 13.8 mph - N/A   Mostly Cloudy
11:50 AM 62.6 °F 44.6 °F 52% 30.04 in 6.2 mi West 13.8 mph - N/A   Mostly Cloudy
12:50 PM 67 °F 46 °F 36% 30.04 in 25 mi WSW 20.7 mph - -   Mostly Cloudy
12:50 PM 66.2 °F 46.4 °F 49% 30.04 in 6.2 mi WSW 20.7 mph - N/A   Scattered Clouds
1:50 PM 66.2 °F 44.6 °F 46% 30.04 in 6.2 mi West 19.6 mph - N/A   Scattered Clouds
2:50 PM 64.4 °F 44.6 °F 49% 30.06 in 6.2 mi WSW 18.4 mph - N/A   Scattered Clouds
3:50 PM 65 °F 46 °F 39% 30.06 in 25 mi West 20.7 mph - -   Mostly Cloudy
3:50 PM 64.4 °F 46.4 °F 52% 30.06 in 6.2 mi West 20.7 mph - N/A   Mostly Cloudy
4:50 PM 64.4 °F 48.2 °F 56% 30.06 in 6.2 mi WSW 19.6 mph - N/A   Mostly Cloudy
5:50 PM 62.6 °F 50.0 °F 63% 30.06 in 6.2 mi WSW 19.6 mph - N/A   Mostly Cloudy
6:50 PM 62 °F 51 °F 59% 30.08 in 22 mi WSW 18.4 mph - -   Mostly Cloudy
6:50 PM 62.6 °F 51.8 °F 68% 30.06 in 6.2 mi WSW 18.4 mph - N/A   Mostly Cloudy
7:50 PM 62.6 °F 50.0 °F 63% 30.09 in 6.2 mi West 17.3 mph - N/A   Mostly Cloudy
8:50 PM 60.8 °F 51.8 °F 72% 30.09 in 6.2 mi WSW 9.2 mph - N/A   Mostly Cloudy
9:50 PM 59 °F 54 °F 77% 30.11 in 16 mi SW 11.5 mph - -   Mostly Cloudy
9:50 PM 59.0 °F 53.6 °F 82% 30.09 in 6.2 mi SW 11.5 mph - N/A   Mostly Cloudy
10:50 PM 59.0 °F 55.4 °F 88% 30.09 in 6.2 mi SW 9.2 mph - N/A   Mostly Cloudy
11:50 PM 60.8 °F 55.4 °F 82% 30.09 in 6.2 mi WSW 12.7 mph - N/A   Mostly Cloudy